| time (UTC) | temp F | wind direction | speed MPH | gust MPH | rain 1hr in | rain 24hr in | rain mn in | humidity % | barometer mb |
| 20260507074549 | 46 | 250 | 0.0 | 1.0 | 0.00 | 0.25 | 0.00 | 82 | 1010.6 |
| 20260507073059 | 46 | 266 | 0.0 | 1.0 | 0.00 | 0.25 | 0.00 | 81 | 1010.6 |
| 20260507071554 | 46 | 285 | 0.0 | 2.0 | 0.00 | 0.25 | 0.00 | 81 | 1010.7 |
| 20260507070100 | 46 | 257 | 0.0 | 1.0 | 0.00 | 0.25 | 0.00 | 80 | 1010.6 |
| 20260507064557 | 46 | 17 | 0.0 | 1.0 | 0.00 | 0.25 | 0.00 | 80 | 1010.6 |
| 20260507063100 | 47 | 290 | 0.0 | 1.0 | 0.00 | 0.25 | 0.00 | 78 | 1010.9 |
| 20260507061602 | 48 | 290 | 0.0 | 1.0 | 0.00 | 0.25 | 0.00 | 76 | 1010.9 |
| 20260507060100 | 49 | 284 | 0.0 | 2.0 | 0.00 | 0.25 | 0.00 | 74 | 1010.8 |
| 20260507054602 | 49 | 254 | 0.0 | 2.0 | 0.00 | 0.25 | 0.00 | 73 | 1010.8 |
| 20260507053003 | 50 | 329 | 2.0 | 7.0 | 0.00 | 0.25 | 0.00 | 74 | 1010.5 |
| 20260507051512 | 49 | 282 | 1.0 | 4.0 | 0.00 | 0.25 | 0.00 | 81 | 1010.5 |
| 20260507050017 | 49 | 262 | 0.0 | 3.0 | 0.00 | 0.25 | 0.00 | 84 | 1010.5 |
| 20260507044518 | 49 | 283 | 2.0 | 6.0 | 0.00 | 0.25 | 0.00 | 86 | 1010.2 |
| 20260507043026 | 49 | 269 | 0.0 | 1.0 | 0.00 | 0.25 | 0.00 | 88 | 1010.1 |
| 20260507041545 | 49 | 242 | 0.0 | 3.0 | 0.00 | 0.25 | 0.00 | 88 | 1010.1 |
| 20260507040048 | 49 | 266 | 0.0 | 1.0 | 0.00 | 0.25 | 0.00 | 89 | 1010.1 |
| 20260507034555 | 49 | 243 | 0.0 | 2.0 | 0.00 | 0.25 | 0.25 | 88 | 1010.1 |
| 20260507033002 | 50 | 275 | 0.0 | 2.0 | 0.00 | 0.25 | 0.25 | 85 | 1010.2 |
| 20260507031507 | 49 | 248 | 0.0 | 2.0 | 0.00 | 0.25 | 0.25 | 89 | 1010.3 |
| 20260507030013 | 49 | 262 | 0.0 | 1.0 | 0.00 | 0.25 | 0.25 | 88 | 1010.0 |
| 20260507024503 | 49 | 304 | 0.0 | 0.0 | 0.00 | 0.25 | 0.25 | 86 | 1009.8 |
| 20260507023004 | 50 | 338 | 0.0 | 0.0 | 0.00 | 0.25 | 0.25 | 85 | 1009.8 |
| 20260507021502 | 51 | 337 | 0.0 | 0.0 | 0.00 | 0.25 | 0.25 | 84 | 1010.2 |
| 20260507020005 | 51 | 30 | 0.0 | 0.0 | 0.00 | 0.25 | 0.25 | 83 | 1010.5 |
| 20260507014517 | 51 | 30 | 0.0 | 1.0 | 0.00 | 0.25 | 0.25 | 83 | 1010.4 |
| 20260507013022 | 51 | 18 | 1.0 | 4.0 | 0.00 | 0.25 | 0.25 | 83 | 1010.2 |
| 20260507011527 | 52 | 250 | 0.0 | 0.0 | 0.00 | 0.25 | 0.25 | 82 | 1010.6 |
| 20260507010026 | 52 | 284 | 0.0 | 2.0 | 0.00 | 0.25 | 0.25 | 82 | 1010.3 |
| 20260507004542 | 52 | 217 | 0.0 | 2.0 | 0.00 | 0.25 | 0.25 | 82 | 1010.1 |
| 20260507003036 | 52 | 268 | 0.0 | 3.0 | 0.00 | 0.25 | 0.25 | 82 | 1009.6 |
| 20260507001547 | 52 | 356 | 2.0 | 11.0 | 0.00 | 0.25 | 0.25 | 82 | 1009.4 |
| 20260507000049 | 52 | 28 | 1.0 | 6.0 | 0.00 | 0.25 | 0.25 | 83 | 1008.9 |
| 20260506234509 | 52 | 307 | 1.0 | 9.0 | 0.00 | 0.25 | 0.25 | 82 | 1008.7 |
| 20260506233012 | 52 | 81 | 1.0 | 3.0 | 0.00 | 0.25 | 0.25 | 84 | 1008.4 |
| 20260506231528 | 52 | 83 | 0.0 | 5.0 | 0.00 | 0.25 | 0.25 | 84 | 1008.3 |
| 20260506230020 | 53 | 284 | 1.0 | 5.0 | 0.00 | 0.25 | 0.25 | 85 | 1008.2 |
| 20260506224525 | 53 | 288 | 2.0 | 8.0 | 0.00 | 0.25 | 0.25 | 85 | 1007.8 |
| 20260506223037 | 54 | 307 | 2.0 | 7.0 | 0.00 | 0.25 | 0.25 | 85 | 1007.9 |
| 20260506221531 | 54 | 32 | 1.0 | 9.0 | 0.00 | 0.25 | 0.25 | 85 | 1007.5 |
| 20260506220033 | 54 | 53 | 1.0 | 8.0 | 0.00 | 0.25 | 0.25 | 87 | 1007.4 |
| 20260506214544 | 55 | 6 | 3.0 | 6.0 | 0.01 | 0.25 | 0.25 | 87 | 1006.9 |
| 20260506213100 | 55 | 281 | 1.0 | 6.0 | 0.01 | 0.25 | 0.25 | 86 | 1006.5 |
| 20260506211606 | 56 | 326 | 0.0 | 8.0 | 0.01 | 0.25 | 0.25 | 88 | 1006.0 |
| 20260506204600 | 61 | 353 | 4.0 | 11.0 | 0.00 | 0.24 | 0.24 | 83 | 1005.4 |
| 20260506203105 | 64 | 262 | 2.0 | 10.0 | 0.00 | 0.24 | 0.24 | 82 | 1004.8 |
| 20260506201610 | 64 | 281 | 2.0 | 7.0 | 0.00 | 0.24 | 0.24 | 82 | 1004.7 |
| 20260506200103 | 63 | 274 | 3.0 | 6.0 | 0.00 | 0.24 | 0.24 | 85 | 1004.5 |
| 20260506194628 | 62 | 243 | 1.0 | 4.0 | 0.00 | 0.24 | 0.24 | 87 | 1004.6 |
| 20260506193004 | 62 | 243 | 1.0 | 4.0 | 0.00 | 0.24 | 0.24 | 88 | 1004.8 |
| 20260506191504 | 62 | 138 | 0.0 | 4.0 | 0.00 | 0.24 | 0.24 | 89 | 1004.6 |
| 20260506190014 | 62 | 195 | 1.0 | 4.0 | 0.00 | 0.24 | 0.24 | 89 | 1004.6 |
| 20260506184518 | 62 | 147 | 0.0 | 3.0 | 0.00 | 0.24 | 0.24 | 89 | 1004.7 |
| 20260506183029 | 61 | 157 | 1.0 | 3.0 | 0.00 | 0.24 | 0.24 | 89 | 1004.6 |
| 20260506181520 | 61 | 193 | 2.0 | 6.0 | 0.00 | 0.24 | 0.24 | 89 | 1004.7 |
| 20260506180036 | 61 | 138 | 1.0 | 7.0 | 0.00 | 0.24 | 0.24 | 91 | 1004.8 |
| 20260506174541 | 60 | 134 | 2.0 | 7.0 | 0.00 | 0.24 | 0.24 | 91 | 1004.8 |
| 20260506173043 | 60 | 219 | 3.0 | 6.0 | 0.00 | 0.24 | 0.24 | 92 | 1004.7 |
| 20260506171552 | 59 | 173 | 3.0 | 6.0 | 0.00 | 0.24 | 0.24 | 92 | 1004.9 |
| 20260506170108 | 59 | 157 | 2.0 | 6.0 | 0.00 | 0.24 | 0.24 | 92 | 1005.0 |
| 20260506164553 | 59 | 149 | 0.0 | 3.0 | 0.00 | 0.24 | 0.24 | 92 | 1005.1 |
| 20260506163111 | 58 | 160 | 0.0 | 2.0 | 0.00 | 0.24 | 0.24 | 93 | 1005.2 |
| 20260506161601 | 58 | 105 | 0.0 | 6.0 | 0.00 | 0.24 | 0.24 | 93 | 1005.1 |
| 20260506160002 | 58 | 163 | 1.0 | 4.0 | 0.00 | 0.24 | 0.24 | 93 | 1005.4 |
| 20260506154503 | 58 | 146 | 2.0 | 4.0 | 0.02 | 0.24 | 0.24 | 93 | 1005.4 |
| 20260506153012 | 58 | 192 | 0.0 | 4.0 | 0.03 | 0.24 | 0.24 | 93 | 1005.2 |
| 20260506151511 | 58 | 94 | 0.0 | 2.0 | 0.03 | 0.24 | 0.24 | 94 | 1005.0 |
| 20260506150011 | 57 | 176 | 1.0 | 4.0 | 0.04 | 0.24 | 0.24 | 94 | 1005.1 |
| 20260506144607 | 57 | 139 | 1.0 | 4.0 | 0.03 | 0.22 | 0.22 | 93 | 1005.2 |
| 20260506143109 | 57 | 162 | 1.0 | 3.0 | 0.02 | 0.21 | 0.21 | 93 | 1005.2 |
| 20260506141600 | 57 | 130 | 0.0 | 3.0 | 0.03 | 0.21 | 0.21 | 93 | 1005.3 |
| 20260506140006 | 57 | 167 | 1.0 | 4.0 | 0.03 | 0.20 | 0.20 | 93 | 1005.1 |
| 20260506134518 | 57 | 155 | 2.0 | 5.0 | 0.04 | 0.19 | 0.19 | 94 | 1005.3 |
| 20260506133016 | 56 | 187 | 1.0 | 7.0 | 0.06 | 0.19 | 0.19 | 94 | 1005.3 |
| 20260506131524 | 56 | 94 | 0.0 | 3.0 | 0.06 | 0.18 | 0.18 | 94 | 1005.4 |
| 20260506130028 | 56 | 64 | 0.0 | 1.0 | 0.07 | 0.17 | 0.17 | 94 | 1005.2 |
| 20260506124530 | 56 | 148 | 0.0 | 2.0 | 0.05 | 0.17 | 0.15 | 94 | 1005.4 |
| 20260506123033 | 56 | 154 | 0.0 | 2.0 | 0.04 | 0.15 | 0.13 | 94 | 1005.9 |
| 20260506121539 | 56 | 92 | 0.0 | 0.0 | 0.03 | 0.14 | 0.12 | 94 | 1006.0 |
| 20260506120047 | 56 | 91 | 0.0 | 0.0 | 0.02 | 0.12 | 0.10 | 94 | 1005.9 |
| 20260506114550 | 56 | 91 | 0.0 | 0.0 | 0.03 | 0.12 | 0.10 | 93 | 1005.4 |
| 20260506113051 | 56 | 94 | 0.0 | 0.0 | 0.03 | 0.11 | 0.09 | 93 | 1005.4 |
| 20260506111552 | 56 | 94 | 0.0 | 1.0 | 0.04 | 0.11 | 0.09 | 93 | 1005.4 |
| 20260506110055 | 56 | 94 | 0.0 | 1.0 | 0.04 | 0.10 | 0.08 | 93 | 1005.2 |
| 20260506104602 | 56 | 94 | 0.0 | 1.0 | 0.04 | 0.09 | 0.07 | 93 | 1005.1 |
| 20260506103007 | 56 | 94 | 0.0 | 0.0 | 0.04 | 0.08 | 0.06 | 93 | 1005.2 |
| 20260506101503 | 56 | 94 | 0.0 | 0.0 | 0.03 | 0.07 | 0.05 | 93 | 1005.2 |
| 20260506100009 | 56 | 94 | 0.0 | 1.0 | 0.03 | 0.06 | 0.04 | 92 | 1005.2 |
| 20260506094509 | 56 | 93 | 0.0 | 1.0 | 0.02 | 0.06 | 0.03 | 92 | 1005.1 |
| 20260506093010 | 56 | 93 | 0.0 | 1.0 | 0.02 | 0.05 | 0.02 | 91 | 1004.9 |
| 20260506091509 | 57 | 94 | 0.0 | 2.0 | 0.02 | 0.05 | 0.02 | 90 | 1004.9 |
| 20260506090005 | 57 | 264 | 1.0 | 2.0 | 0.01 | 0.04 | 0.01 | 88 | 1004.8 |
| 20260506084600 | 58 | 146 | 0.0 | 1.0 | 0.01 | 0.04 | 0.01 | 87 | 1004.8 |
| 20260506083054 | 58 | 278 | 1.0 | 3.0 | 0.00 | 0.03 | 0.00 | 87 | 1005.1 |
| 20260506081549 | 58 | 276 | 1.0 | 2.0 | 0.00 | 0.03 | 0.00 | 86 | 1005.0 |